Flag for Ukraine Weather past 2 weeks in Luhansk, Ukraine

Now
36 °F

Sprinkles. Fog.


Feels Like: 25 °F
Forecast: 20 / 39 °F
Wind: 20 mph from East

Location: Rostov-Na-Donu

Current Time: Dec 27, 2014 at 10:22:00 PM

Latest Report: Dec 27, 2014 at 10:00 PM


Visibility: 3 mi

Pressure: 29.74 "Hg

Humidity: 100%

Dew point: 36 °F

Location of LuhanskLocation

Historic Weather in Luhansk — Graph

°F

Luhansk temperature yesterday

Maximum temperature yesterday: 39 °F (at 12:00 AM)
Minimum temperature yesterday: 30 °F (at 11:00 PM)
Average temperature yesterday: 37 °F

Past Weeks' High & Low Weather Summary

 TemperatureHumidityPressure
High48 °F (Dec 19, 1:00 PM)100% (Dec 12, 9:00 PM)30.39 "Hg (Dec 12, 9:00 PM)
Low25 °F (Dec 14, 7:00 PM)62% (Dec 24, 4:00 PM)29.56 "Hg (Dec 23, 2:30 PM)
Average36 °F94%30.05 "Hg
* Reported Dec 12 9:00 PM — Dec 27 9:00 PM, Luhansk, Weather by CustomWeather, © 2014

Note: Actual official high and low records may vary slightly from our data, if they occured in-between our weather recording intervals... More about our weather records

Advertising

Luhansk weather history for previous 24 hours

 ConditionsComfort  
Time TempWeatherWind HumidityBarometerVisibility
9:00 PM
Dec 27
36 °FSprinkles. Fog.15 mph100%29.77 "Hg2 mi
8:30 PM36 °FSprinkles. Fog.17 mph100%29.77 "Hg2 mi
8:00 PM36 °FSprinkles. Fog.17 mph100%29.77 "Hg3 mi
7:30 PM36 °FSprinkles. Fog.17 mph100%29.77 "Hg2 mi
7:00 PM36 °FSprinkles. Fog.17 mph93%29.80 "Hg2 mi
6:30 PM36 °FLight rain. Fog.17 mph93%29.80 "Hg2 mi
6:00 PM34 °FLight rain. Fog.17 mph100%29.80 "Hg3 mi
5:30 PM34 °FLight rain. Fog.20 mph100%29.80 "Hg3 mi
5:00 PM34 °FLight rain. Fog.20 mph100%29.83 "Hg3 mi
4:30 PM34 °FLight rain. Mostly cloudy.20 mph93%29.83 "Hg4 mi
4:00 PM32 °FIce fog.17 mph100%29.83 "Hg3 mi
3:30 PM32 °FLight freezing rain. Ice fog.20 mph100%29.86 "Hg2 mi
3:00 PM30 °FLight freezing rain. Ice fog.20 mph100%29.86 "Hg2 mi
2:30 PM30 °FLight freezing rain. Ice fog.20 mph100%29.89 "Hg2 mi
2:00 PM28 °FMixture of precip. Ice fog.22 mph100%29.89 "Hg2 mi
1:30 PM28 °FMixture of precip. Ice fog.22 mph100%29.92 "Hg2 mi
1:00 PM28 °FSnow flurries. Mostly cloudy.22 mph100%29.92 "Hg2 mi
12:30 PM28 °FSnow flurries. Mostly cloudy.22 mph100%29.95 "Hg2 mi
12:00 PM28 °FHeavy snow. Ice fog.20 mph100%29.95 "Hg1 mi
11:30 AM28 °FHeavy snow. Ice fog.24 mph100%29.98 "Hg1 mi
11:00 AM28 °FSnow showers. Mostly cloudy.22 mph100%30.01 "Hg1 mi
10:30 AM28 °FSnow. Mostly cloudy.22 mph100%30.01 "Hg1 mi
10:00 AM28 °FSnow. Mostly cloudy.20 mph100%30.04 "Hg1 mi
9:30 AM28 °FSnow. Mostly cloudy.20 mph100%30.04 "Hg1 mi
9:00 AM28 °FHeavy snow. Ice fog.17 mph100%30.07 "Hg1 mi
8:30 AM28 °FHeavy snow. Ice fog.17 mph100%30.07 "Hg1 mi
8:00 AM28 °FHeavy snow. Ice fog.15 mph100%30.07 "Hg1 mi
7:30 AM28 °FHeavy snow. Ice fog.15 mph100%30.07 "Hg1 mi
6:30 AM28 °FSnow showers. Overcast.15 mph100%30.09 "Hg1 mi
6:00 AM28 °FSnow showers. Overcast.17 mph100%30.07 "Hg1 mi
5:30 AM28 °FSnow. Mostly cloudy.13 mph100%30.09 "Hg1 mi
5:00 AM28 °FSnow. Mostly cloudy.13 mph100%30.09 "Hg1 mi
4:30 AM28 °FSnow. Mostly cloudy.13 mph93%30.12 "Hg1 mi
4:00 AM30 °FLight snow. Mostly cloudy.15 mph86%30.12 "Hg3 mi
3:30 AM30 °FMostly cloudy.13 mph80%30.12 "HgN/A
3:00 AM30 °FMostly cloudy.13 mph80%30.12 "HgN/A
2:30 AM30 °FMostly cloudy.8 mph80%30.12 "HgN/A
2:00 AM30 °FPassing clouds.10 mph80%30.12 "HgN/A
1:30 AM30 °FPassing clouds.10 mph80%30.12 "HgN/A
1:00 AM30 °FPassing clouds.10 mph80%30.12 "HgN/A
12:30 AM30 °FPassing clouds.10 mph80%30.12 "HgN/A
12:00 AM30 °FPassing clouds.10 mph80%30.12 "HgN/A
11:30 PM
Dec 26
30 °FPassing clouds.10 mph80%30.15 "HgN/A
11:00 PM30 °FPassing clouds.13 mph80%30.12 "HgN/A
10:30 PM32 °FPassing clouds.10 mph75%30.12 "HgN/A
10:00 PM32 °FPartly cloudy.10 mph80%30.12 "HgN/A
Weather by CustomWeather, © 2014

See weather overviewHow to use our weather pages